Date String (YYYY-MM-DD hh:mm:ss) UTC,Instrument flags,Ambient pressure (hPa),Sample flow (lpm),Bypass flow (lpm),Sample temperature (°C),Ambient temperature (°C),ASC tube jacket temperature (°C),LED temperature (°C),Box temperature (°C),Sample RH (%),Span deviation,Mass concentration (μg/m³),Mass concentration (μg/m³),Mass concentration (μg/m³)
DateTimeUTC,F1_M11,P_M11,Q1_M11,Q2_M11,T1_M11,T2_M11,T3_M11,T4_M11,T5_M11,U1_M11,ZSPAN_M11,X0_M11,X2_M11,X1_M11
2022-09-11 14:00:00,,0834.3,4.99,0.00,26.5,25.1,00.0,35.2,28.4,28.2,-000.9,0009.32,0007.02,0006.82
2022-09-11 14:01:00,,0834.3,5.01,0.00,26.5,25.1,00.0,35.3,28.4,28.1,-000.9,0009.35,0007.05,0006.85
2022-09-11 14:02:00,,0834.3,5.00,0.00,26.5,25.0,00.0,35.3,28.5,28.2,-001.3,0009.39,0007.08,0006.88
2022-09-11 14:03:00,,0834.3,5.01,0.00,26.5,25.0,00.0,35.3,28.5,28.2,-001.1,0009.41,0007.11,0006.90
2022-09-11 14:04:00,,0834.3,5.01,0.00,26.5,25.0,00.0,35.3,28.4,27.9,-001.4,0009.49,0007.15,0006.92
2022-09-11 14:05:00,,0834.2,5.00,0.00,26.5,25.0,00.0,35.3,28.4,28.0,-001.2,0009.47,0007.15,0006.94
2022-09-11 14:06:00,,0834.3,5.01,0.00,26.6,25.0,00.0,35.3,28.5,28.2,-001.3,0009.44,0007.15,0006.95
2022-09-11 14:07:00,,0834.3,4.99,0.00,26.5,25.1,00.0,35.3,28.4,28.0,-001.5,0009.35,0007.14,0006.96
2022-09-11 14:08:00,,0834.3,5.01,0.00,26.5,25.1,00.0,35.3,28.4,27.9,-001.6,0009.38,0007.16,0006.97
2022-09-11 14:09:00,,0834.2,5.00,0.00,26.6,25.1,00.0,35.3,28.5,27.7,-001.7,0009.33,0007.16,0006.97
2022-09-11 14:10:00,,0834.3,5.00,0.00,26.6,25.1,00.0,35.3,28.5,27.9,-002.1,0009.30,0007.14,0006.96
2022-09-11 14:11:00,,0834.3,5.01,0.00,26.6,25.1,00.0,35.3,28.4,28.4,-002.0,0009.32,0007.11,0006.94
2022-09-11 14:12:00,,0834.3,4.99,0.00,26.6,25.1,00.0,35.3,28.4,28.2,-001.9,0009.42,0007.05,0006.89
2022-09-11 14:13:00,,0834.3,5.01,0.00,26.6,25.1,00.0,35.3,28.5,27.7,-002.1,0009.38,0007.02,0006.87
2022-09-11 14:14:00,,0834.3,4.98,0.00,26.6,25.1,00.0,35.3,28.5,27.6,-002.1,0009.38,0007.00,0006.85
2022-09-11 14:15:00,,0834.3,5.01,0.00,26.6,25.1,00.0,35.3,28.5,27.8,-002.0,0009.34,0006.97,0006.82
2022-09-11 14:16:00,,0834.3,5.00,0.00,26.6,25.1,00.0,35.3,28.5,28.0,-002.2,0009.38,0006.97,0006.79
2022-09-11 14:17:00,,0834.3,4.99,0.00,26.6,25.2,00.0,35.3,28.5,27.7,-002.3,0009.51,0006.99,0006.78
2022-09-11 14:18:00,,0834.3,5.01,0.00,26.6,25.2,00.0,35.3,28.5,27.8,-002.0,0009.52,0006.98,0006.76
2022-09-11 14:19:00,,0834.3,4.98,0.00,26.6,25.2,00.0,35.3,28.5,27.5,-001.7,0009.65,0006.98,0006.74
2022-09-11 14:20:00,,0834.3,5.01,0.00,26.6,25.3,00.0,35.3,28.5,27.5,-001.7,0009.61,0006.95,0006.73
2022-09-11 14:21:00,,0834.3,4.99,0.00,26.6,25.3,00.0,35.3,28.5,28.1,-001.4,0009.92,0006.96,0006.72
2022-09-11 14:22:00,,0834.3,5.00,0.00,26.6,25.3,00.0,35.3,28.5,28.8,-001.4,0010.01,0006.96,0006.71
2022-09-11 14:23:00,,0834.3,4.99,0.00,26.6,25.3,00.0,35.3,28.6,28.6,-001.5,0009.74,0006.95,0006.70
2022-09-11 14:24:00,,0834.3,5.00,0.00,26.7,25.3,00.0,35.4,28.6,28.3,-001.5,0009.80,0006.97,0006.70
2022-09-11 14:25:00,,0834.3,4.99,0.00,26.7,25.3,00.0,35.4,28.6,28.5,-001.5,0009.76,0006.96,0006.69
2022-09-11 14:26:00,,0834.3,5.01,0.00,26.7,25.3,00.0,35.4,28.6,28.2,-001.2,0009.76,0006.96,0006.69
2022-09-11 14:27:00,,0834.3,4.98,0.00,26.7,25.4,00.0,35.4,28.6,28.1,-001.3,0009.74,0006.94,0006.69
2022-09-11 14:28:00,,0834.3,5.01,0.00,26.7,25.4,00.0,35.4,28.6,28.7,-001.6,0009.94,0006.89,0006.67
2022-09-11 14:29:00,,0834.3,4.99,0.00,26.7,25.4,00.0,35.4,28.7,29.0,-001.8,0010.24,0006.89,0006.66
2022-09-11 14:30:00,,0834.3,5.01,0.00,26.7,25.4,00.0,35.4,28.7,28.6,-002.0,0010.26,0006.88,0006.66
2022-09-11 14:31:00,,0834.3,4.98,0.00,26.7,25.4,00.0,35.4,28.7,28.2,-001.9,0010.35,0006.88,0006.66
2022-09-11 14:32:00,,0834.3,5.01,0.00,26.7,25.4,00.0,35.4,28.6,28.3,-001.8,0010.04,0006.86,0006.67
2022-09-11 14:33:00,,0834.3,4.99,0.00,26.8,25.4,00.0,35.4,28.7,28.1,-001.8,0009.92,0006.87,0006.68
2022-09-11 14:34:00,,0834.3,5.01,0.00,26.8,25.5,00.0,35.5,28.7,28.2,-001.8,0009.88,0006.87,0006.68
2022-09-11 14:35:00,,0834.3,4.98,0.00,26.8,25.5,00.0,35.5,28.7,28.1,-001.4,0009.83,0006.87,0006.70
2022-09-11 14:36:00,,0834.3,5.01,0.00,26.8,25.5,00.0,35.5,28.7,27.9,-001.1,0009.85,0006.89,0006.72
2022-09-11 14:37:00,,0834.3,4.98,0.00,26.8,25.5,00.0,35.5,28.7,28.0,-001.3,0009.85,0006.90,0006.74
2022-09-11 14:38:00,,0834.3,5.01,0.00,26.8,25.5,00.0,35.5,28.7,28.1,-001.2,0009.90,0006.94,0006.76
2022-09-11 14:39:00,,0834.3,4.99,0.00,26.8,25.5,00.0,35.5,28.8,28.7,-000.9,0009.61,0006.98,0006.79
2022-09-11 14:40:00,,0834.3,5.02,0.00,26.9,25.5,00.0,35.5,28.8,28.4,-000.9,0009.34,0006.98,0006.80
2022-09-11 14:41:00,,0834.3,4.99,0.00,26.9,25.6,00.0,35.5,28.8,28.1,-000.7,0009.14,0007.00,0006.81
2022-09-11 14:42:00,,0834.3,5.01,0.00,26.9,25.6,00.0,35.5,28.8,28.3,-000.7,0009.04,0007.01,0006.83
2022-09-11 14:43:00,,0834.3,4.99,0.00,26.9,25.6,00.0,35.6,28.8,28.0,-000.3,0009.11,0007.04,0006.84
2022-09-11 14:44:00,,0834.3,5.01,0.00,26.9,25.6,00.0,35.6,28.8,27.7,-000.3,0009.19,0007.08,0006.86
2022-09-11 14:45:00,,0834.3,4.99,0.00,26.9,25.6,00.0,35.6,28.8,27.8,-000.2,0009.68,0007.10,0006.87
2022-09-11 14:46:00,,0834.3,5.01,0.00,26.9,25.6,00.0,35.6,28.8,27.8,-000.4,0010.07,0007.13,0006.88
2022-09-11 14:47:00,,0834.3,5.01,0.00,26.9,25.6,00.0,35.6,28.8,28.0,-000.2,0010.13,0007.12,0006.87
2022-09-11 14:48:00,,0834.3,4.99,0.00,27.0,25.7,00.0,35.6,28.9,27.8,0000.1,0010.26,0007.11,0006.87
2022-09-11 14:49:00,,0834.3,5.00,0.00,27.0,25.7,00.0,35.6,28.9,27.6,0000.3,0010.21,0007.09,0006.87
2022-09-11 14:50:00,,0834.3,4.99,0.00,27.0,25.7,00.0,35.6,28.9,27.6,0000.1,0010.14,0007.06,0006.86
2022-09-11 14:51:00,,0834.3,5.01,0.00,27.0,25.7,00.0,35.6,28.9,27.6,-000.3,0010.12,0007.06,0006.87
2022-09-11 14:52:00,,0834.3,4.99,0.00,27.0,25.7,00.0,35.7,28.9,27.6,-000.5,0010.13,0007.06,0006.86
2022-09-11 14:53:00,,0834.3,5.01,0.00,27.0,25.7,00.0,35.7,28.9,28.0,-000.7,0010.14,0007.05,0006.85
2022-09-11 14:54:00,,0834.3,4.99,0.00,27.0,25.7,00.0,35.7,29.0,28.1,-000.9,0010.12,0007.03,0006.84
2022-09-11 14:55:00,,0834.3,5.01,0.00,27.0,25.8,00.0,35.7,29.0,27.9,-001.1,0010.03,0006.99,0006.83
2022-09-11 14:56:00,,0834.3,4.99,0.00,27.1,25.8,00.0,35.7,29.0,27.8,-000.9,0009.71,0006.98,0006.82
2022-09-11 14:57:00,,0834.3,5.01,0.00,27.1,25.8,00.0,35.7,29.0,27.5,-000.4,0009.24,0006.97,0006.81
2022-09-11 14:58:00,,0834.4,5.00,0.00,27.1,25.8,00.0,35.7,29.0,27.5,-000.9,0009.32,0006.97,0006.80
2022-09-11 14:59:00,,0834.3,4.99,0.00,27.1,25.8,00.0,35.7,29.0,27.9,-001.4,0009.20,0006.97,0006.78
